User: anonymous   Login
Location: Jetmore Oil Field
(38.1181°N, 99.9337°W)
Time: 04:09:21
(UTC+00:00)
Language:

STARLINK-70 - Orbit

View from above orbital plane
View from above orbital plane
View from above satellite
View from above satellite

Ground track
Ground track

The orbit data is extracted from the following two-line orbital elements,

1 44281C 19029AY  20152.76068698  .00879505  00000-0  34036-1 0  1522
2 44281  52.9991 285.3006 0001581 121.0067 349.8732 15.24782568    17
Epoch (UTC): 31 May 2020 18:15:23
Eccentricity: 0.0001581
inclination: 52.9991°
perigee height: 490 km
apogee height: 492 km
right ascension of ascending node: 285.3006°
argument of perigee: 121.0067°
revolutions per day: 15.24782568
mean anomaly at epoch: 349.8732°
orbit number at epoch: 1

The dashed part of the orbit path shows where the satellite is in the earth's shadow,  

DLR